FENGYUN 1C DEB, 30385

Orbit data source: Space-Track

FENGYUN 1C DEB, 30385 is space debris in SSO originally from a launch on Mon, 10 May 1999 UTC launched from the Taiyaun Space Center, China (TSC). Fengyun 1C debris stems from the Chinese weather satellite Fengyun-1C, which was intentionally destroyed by a Chinese anti-satellite missile in 2007. This event dramatically increased the amount of space debris, with thousands of trackable fragments posing hazards to satellites and human spaceflight. The Fengyun 1C debris cloud has become a focal point in discussions about space sustainability and the need for international regulations to prevent the creation of new debris.

Loading next visibility...
Identifier
30385, 1999-025ACY
Orbit
SSO
Country
Flag of CNCN / PRC
Related business
Manufacturer
Unknown
Mission
Spacecraft
Bus & Motor
Unknown
Mass
Unknown
Launch date (UTC)
1999-05-10 (27 years ago)
Launch vehicle
Unknown
Launch site
Taiyaun Space Center, China (TSC)
Object type
Payload
Rocket body
Debris
Shape & HBR
Unknown shape, 0.1 m
Radar Cross Section
Small (<0.1 m²)

Expand to show TLE details & history
Last TLE update: 6 hours ago

TLE from 6 hours ago
0 FENGYUN 1C DEB
1 30385U 99025ACY 26120.55965802  .00000555  00000-0  18010-3 0  9993
2 30385  99.0658 154.2775 0124160 240.9895 274.5709 14.39051779  7636
Epoch: 2026-04-30T13:25Z
TLE epoch observation values (Epoch: 2026-04-30T13:25:54.452Z)
Latitude
25.54558°
Longitude
-81.3535°
Altitude
758.766 km
Speed
7.48 km/s
True Right ascension
22h 34m 30s
True Declination
25° 24' 43"
Sunlit
Object was in daylight at epoch
Visualization orbit readout
Latitude
Unknown
Longitude
Unknown
Altitude
Unknown
Speed
Unknown
Apparent Right ascension
Unknown
Apparent Declination
Unknown
Sunlit
N/A
Visualization observer readout
Local Sidereal Time
02:40:34
Azimuth
Unknown
Elevation
Unknown
Doppler factor
Unknown
Orbital elements
Apogee altitude
847.395 km
Perigee altitude
670.171 km
Semi-major axis
7,136.92 km
Eccentricity
0.01242
Inclination
99.0658°
RAAN
154.2775°
Arg. of periapsis
240.9895°
True anomaly
273.15105°
Mean anomaly
274.5709°
Eccentric anomaly
273.86113°
Mean motion
3.59979 °/min
Orbital period
100.01 mins
BSTAR
0.0001801
Loading maneuver chart data...
Computing Atmospheric mass density...

Documentation

Showing up to 5 results
|